Regional Weather Roundup
Issued by NWS State College, PA

Home | Current Version | Previous Version | Graphics & Text | Print | Product List | Glossary Off
Versions: 1 2 3 4 5 6 7 8 9 10 11 12 13 14 15 16 17 18 19 20 21 22 23 24 25 26 27 28 29 30 31 32 33 34 35 36 37 38 39 40 41 42 43 44 45 46 47 48 49 50

000
ASUS41 KCTP 240510
RWRCTP

REGIONAL WEATHER ROUNDUP
NATIONAL WEATHER SERVICE STATE COLLEGE PA
100 AM EDT TUE MAY 24 2016

Note: "fair" indicates few or no clouds below 12,000 feet with no
significant weather and/or obstructions to visibility.

* = STATION THAT DOES NOT REPORT PRECIPITATION /E.G. RAIN...SNOW...ETC/
    THUNDER OR FOG.

PAZ002>004-007>009-013>016-020>023-029>032-240600-
WESTERN PENNSYLVANIA

CITY           SKY/WX    TMP DP  RH WIND       PRES   REMARKS
ERIE           CLEAR     54  45  71 S6        30.01F
MEADVILLE      CLEAR     56  41  57 CALM      30.03S
FRANKLIN*      CLEAR     54  43  66 CALM      30.05S
NEW CASTLE     FAIR      51  46  83 CALM      30.03F
BEAVER COUNTY  NOT AVBL
BUTLER*        CLEAR    N/A N/A N/A CALM      30.05S
PITTSBURGH INT PTCLDY    57  51  80 CALM      30.02F
PITTSBURGH     CLEAR     59  49  69 NW7       30.01F
INDIANA*       CLEAR     55  52  88 CALM      30.04S
LATROBE        MOCLDY    55  54  94 SW5       30.03S
WASHINGTON CO* CLEAR     48  46  93 CALM      30.04S
$$

PAZ004>006-010>012-017>019-024>028-033>037-041-042-045-046-049>053-240600-
CENTRAL PENNSYLVANIA

CITY           SKY/WX    TMP DP  RH WIND       PRES   REMARKS
BRADFORD       CLEAR     50  43  77 NW3       30.02S
DUBOIS         CLEAR     54  45  71 SW3       30.01R
CLEARFIELD     CLEAR     54  47  77 CALM      30.00S
JOHNSTOWN      CLEAR     55  44  66 SW6       30.01F
ALTOONA        CLEAR     55  49  80 CALM      30.00S
STATE COLLEGE  CLEAR     55  51  86 CALM      29.98S
WILLIAMSPORT   MOCLDY    59  48  67 W14       29.93S
SELINSGROVE    CLEAR     53  51  93 CALM      29.95R
FT INDIANTOWN  CLOUDY    56  56 100 W5        29.93S
CAPITAL CITY   PTCLDY    60  54  80 W6        29.94F
HARRISBURG     CLOUDY    59  55  87 NW8       29.92F
YORK           PTCLDY    58  54  86 W5        29.93F
$$

PAZ038>040-043-044-047-048-054-055-060>062-067>071-240600-
EASTERN PENNSYLVANIA

CITY           SKY/WX    TMP DP  RH WIND       PRES   REMARKS
SCRANTON       PTCLDY    58  47  66 CALM      29.91F
MOUNT POCONO   MOCLDY    54  46  74 N6        29.92F
ALLENTOWN      MOCLDY    61  54  77 S6        29.90S
QUAKERTOWN*    CLOUDY    59  55  88 CALM      29.92F
READING        PTCLDY    59  53  80 W5        29.90F
LANCASTER      CLOUDY    57  54  89 W8        29.92S
COATESVILLE      N/A    N/A N/A N/A MISG        N/A
POTTSTOWN      CLOUDY    57  55  93 CALM      29.92F
BLUE BELL      CLOUDY    55  54  94 S5        29.91F
DOYLESTOWN     CLOUDY    57  54  89 S5        29.90F
WILLOW GROVE   NOT AVBL
NORTH PHILA    LGT RAIN  59  54  83 SW7       29.92F
PHILADELPHIA   CLOUDY    60  51  72 S6        29.94S
$$



USA.gov is the U.S. government's official web portal to all federal, state and local government web resources and services.